GUOWANG

导读 | 豆包AI

HULIANWANG DIGUI-113卫星于2025年12月6日由中国发射,它属低轨卫星星座组网范畴,是中国低轨互联网卫星体系建设进程中的组成部分,该卫星承担着拓展网络覆盖范围、提供更优卫星互联网通信服务的使命,助力中国天地一体化信息网络构建,服务全球用户通信互联需求。

基本信息
目录编号:
66923
目录名称:
HULIANWANG DIGUI-113
国际标识:
2025-285J
轨道中心:
EARTH
卫星名称:
HULIANWANG DIGUI-113
卫星全名:
GUOWANG
卫星状态:
在轨 (已飞行170 天)
发射日期:
2025-12-06 UTC
国别 :
中国 (CN)
星等 :
--
轨道信息
数据来源 国际轨道数据 AOE轨道数据
星历时间 2026-05-24T07:26:14+0800
1天前
查看轨道信息
2026-05-23T08:00:00+0800
2天前
查看轨道信息
半长轴 7527.453km 7527.449km
偏心率 0.0001076 0.0001185
轨道倾角 50.009° 50.008°
近地点辐角 207.303° 201.568°
升交点赤经 232.527° 236.029°
平近点角 152.779° 162.280°
近地点 1148.506km 1148.419km
远地点 1150.126km 1150.205km
周期 108.326分钟 108.326分钟
每日圈数 13.293236 13.293247
详细信息
使用方式:
暂无
2D轨道图
3D轨道图
轨道高度分析图
轨道倾角分析图
轨道综合分析图
查看轨道综合分析图